Location: Barrisville
(40.7845°N, 80.2406°W)
Time: 08:12:21
(UTC+00:00)

Daily predictions for brighter satellites

Satellite Brightness Start Highest point End
(mag) Time Altitude Azimuth Time Altitude Azimuth Time Altitude Azimuth
Cosmos 1607 4.0 22:21:04 10° NNW 22:27:18 80° ENE 22:33:35 10° SE
ERBS 3.2 22:26:34 10° WSW 22:29:46 44° NW 22:32:58 10° NNE
Meteor 2-3 Rocket 4.3 22:25:13 10° NNW 22:30:58 67° W 22:36:38 10° S
Cosmos 1238 Rocket 3.0 22:28:30 10° NNW 22:32:28 70° W 22:35:46 10° S
Cosmos 1464 Rocket 4.3 22:30:40 10° N 22:36:29 42° ENE 22:42:14 10° SSE
YAOGAN 1 4.3 22:34:55 10° E 22:36:59 13° ENE 22:39:01 10° NE
Cosmos 1538 Rocket 4.5 22:32:44 10° SSW 22:37:58 66° WNW 22:43:16 10° NNE
CORIOLIS 4.1 22:43:53 10° SSE 22:49:14 70° ENE 22:54:40 10° N
SeaSat 1 3.1 22:45:11 10° ESE 22:49:31 32° NE 22:53:53 10° N
Cosmos 1869 3.7 22:46:15 10° SSW 22:50:10 65° W 22:54:05 10° N
Cosmos 2219 4.3 22:46:53 10° NW 22:52:16 48° WSW 22:57:38 10° S
PSLV R/B 3.1 22:49:49 10° W 22:52:18 54° SSW 22:54:37 11° ESE
Feng Yun 1-1 Rocket 4.3 22:48:12 10° SSE 22:53:48 85° WSW 22:59:18 10° NNW
Cosmos 1633 2.5 22:52:15 10° N 22:55:51 58° E 22:59:25 10° SSE
SL-16 R/B 4.0 22:55:22 10° ESE 22:56:48 11° E 22:56:48 11° E
H-2A R/B 2.7 22:53:23 10° SSE 22:57:14 90° WSW 23:01:03 10° NNW
Cosmos 1980 Rocket 2.6 22:53:05 10° S 22:58:22 43° ESE 23:03:43 10° NE
Envisat 3.1 22:54:31 10° SE 22:59:24 50° ENE 23:04:19 10° N
SKYMED 2 4.0 22:58:09 10° NNE 23:02:15 39° E 23:06:18 10° SSE
NOSS 2-3 (E) 3.7 23:00:16 10° SW 23:04:33 86° NW 23:09:32 10° NE
Cosmos 2322 Rocket 4.1 23:03:25 10° ESE 23:03:33 10° ESE 23:03:33 10° ESE
Cosmos 2297 Rocket 3.0 23:01:07 10° NNW 23:06:39 57° WSW 23:12:10 10° S
Cosmos 2227 Rocket 2.8 23:01:35 10° NNW 23:07:10 61° WSW 23:12:43 10° S
Cosmos 1805 Rocket 4.4 23:03:06 10° NNW 23:07:22 54° W 23:11:39 10° S
Cosmos 1356 Rocket 4.5 23:04:46 10° SSW 23:08:47 48° WNW 23:12:55 10° N
NOSS 3-1 (C) 4.5 23:06:18 10° WSW 23:11:30 39° NW 23:17:26 10° NNE
Okean-O 2.6 23:07:50 10° SSE 23:12:15 86° ENE 23:16:43 10° NNW
NOSS 3-1 (A) 3.8 23:07:22 10° SW 23:12:47 57° NW 23:19:00 10° NNE
GPS 2-04 Rocket1 3.9 23:10:50 10° SW 23:13:42 25° SSE 23:15:22 17° SE
NOSS 2-3 (D) 3.8 23:09:55 10° SW 23:14:12 76° NW 23:18:46 12° NNE
NOAA 12 4.1 23:09:31 10° SSE 23:14:51 87° ENE 23:20:13 10° NNW
Cosmos 397 4.5 23:11:36 10° NNW 23:15:37 57° ENE 23:19:56 10° SE
GEOS 3 Rocket 3.9 23:17:07 10° NNE 23:22:20 71° NW 23:27:35 10° SW
Cosmos 1371 Rocket 4.1 23:18:58 10° N 23:24:03 51° ENE 23:29:03 10° SE
CZ-4 R/B 1.5 23:20:03 10° SSE 23:24:04 50° ENE 23:28:01 10° N
Cosmos 158 Rocket 4.0 23:18:59 10° S 23:24:11 59° ESE 23:28:39 14° NNE
Cosmos 2263 Rocket 3.2 23:19:57 10° N 23:24:22 23° NE 23:24:46 23° ENE
Lacrosse 4 Rocket 3.0 23:22:47 10° WSW 23:26:26 31° NW 23:30:03 10° N
Cosmos 2369 4.3 23:22:02 10° SW 23:27:35 56° WNW 23:33:11 10° NNE
Geosat 4.2 23:23:04 10° NNE 23:28:06 74° WNW 23:33:07 10° SW
YAOGAN 6 2.4 23:24:44 10° SSE 23:28:10 62° ENE 23:31:38 10° N
Centaur D-1A AC-31 3.5 23:30:06 10° S 23:31:21 11° SSE 23:32:28 11° SE
ATLAS 5 CENTAUR R/B 4.0 23:26:40 10° NW 23:32:14 38° WSW 23:38:25 10° S
SL-8 R/B 4.0 23:28:26 10° SW 23:33:06 52° SE 23:34:50 34° E
CZ-4 R/B 4.3 23:30:16 10° SSE 23:34:22 73° ENE 23:38:31 10° N
Cosmos 1633 Rocket 3.4 23:30:01 10° NNW 23:34:24 67° W 23:38:47 10° S
FengYun 1-2 T 4.1 23:28:57 10° SSE 23:34:28 80° ENE 23:39:59 10° N
Cosmos 2228 Rocket 3.5 23:30:50 10° SSE 23:34:58 39° E 23:35:48 36° ENE
Cosmos 2112 Rocket 4.2 23:30:11 10° SSW 23:35:21 71° WNW 23:40:36 10° NNE
Cosmos 2034 Rocket 4.0 23:29:15 10° N 23:35:40 89° E 23:42:03 10° S
Cosmos 1697 Rocket 3.5 23:31:05 10° SW 23:36:34 50° WNW 23:42:04 10° NNE
Cosmos 2082 4.4 23:32:07 10° NNW 23:37:36 55° WSW 23:43:03 10° S
Cosmos 1151 Rocket 3.1 23:34:31 10° SSW 23:38:52 77° W 23:43:16 10° N
DELTA 2 R/B (1) 4.5 23:34:12 10° SW 23:39:14 35° SSE 23:41:05 28° ESE
Cosmos 1680 Rocket 4.2 23:36:24 10° SW 23:41:28 53° WNW 23:46:37 10° N
Ariane Rocket 4.3 23:44:24 23° NNE 23:44:24 23° NNE 23:46:52 10° N
Cosmos 2360 4.5 23:37:46 10° SSW 23:43:26 68° WNW 23:48:58 11° NNE
Cosmos 1933 3.2 23:40:02 10° S 23:44:04 66° E 23:45:33 36° NNE
Cosmos 2278 4.4 23:40:24 10° SW 23:45:57 54° WNW 23:51:32 10° NNE
Cosmos 1328 Rocket 4.1 23:41:56 10° SSW 23:46:17 58° W 23:50:37 10° N
Cosmos 1515 Rocket 3.5 23:45:20 10° S 23:49:43 88° WNW 23:53:24 15° N
Cosmos 1933 Rocket 3.4 23:45:39 10° N 23:49:59 69° E 23:54:19 10° SSE
COSMO-SKYMED 1 3.1 23:45:58 10° N 23:50:15 60° WNW 23:54:31 10° SSW
Cosmos 1634 Rocket 4.0 23:47:41 10° N 23:53:44 53° E 23:59:43 10° SSE
